Airfield :
LOGIN :

Register | Disclaimer

   EN    FR    IT 

 










Legend :    VFR   Marginal VFR   IFR   Intensive IFR   Very Intensive IFR
Visi :
Ceiling :
>= 8 km
>= 3000ft
5 to 8 km
1000 to 3000 ft
1500m to 5 km
500 to 1000 ft
800 to 1500m
200 to 500 ft
< 800m
< 200 ft
Symbols :   Thunderstorms  Fog  Heavy snow  Heavy precipitations  Wind > 20 kt
SIGMETs :     Misc.  Thunderstorms  Icing  Turbulence  Mountain Waves  Volcanic Ashes







- Airport Elevation : 106 ft
- IATA code : XDA
- Download approach charts


LFBY - Dax Seyresse

CURRENT METAR :
  • 200400Z AUTO 31004KT 280V340 6000 // ////// 11/10 Q1018

EXPIRED METARs :
  • 200330Z AUTO 33005KT 290V360 8000 // ////// 11/10 Q1018
  • 200300Z AUTO 32005KT 290V350 3600 // BKN005 OVC011 11/10 Q1018
  • 200230Z AUTO VRB03KT 2200 // BKN005 BKN012 OVC022 11/10 Q1018
  • 200200Z AUTO VRB02KT 2000 // OVC009 11/10 Q1018
  • 200130Z AUTO VRB02KT 9999 // BKN009 OVC015 11/10 Q1018
  • 200100Z AUTO VRB02KT 4400 // OVC008 11/10 Q1019

Expired Forecast.
No reported NOTAMs for that airfield.



MET'MAP, your aeronautical weather chart ! - Copyright ORBIFLY December 2007 - Disclaimer

ORBIFLY MET'MAP TEAM :

Programming & Development : Alexandra Zaïnal
Concept & Development : Baudouin d'Aumeries
Co-Development & Prog : Marc-Olivier Méhu
Technical & hardware support : Manuel Goepfert

Contact : metmap@orbifly.com




SOURCES & CREDITS :

   NOAA